Time,TemperatureF,DewpointF,PressureIn,WindDirection,WindDirectionDegrees,WindSpeedMPH,WindSpeedGustMPH,Humidity,HourlyPrecipIn,Conditions,Clouds,dailyrainin,SoftwareType,DateUTC
2013-12-13 00:03:00,21.4,4.3,29.95,West,270,4.7,-999.0,47,-99.99,,,0.00,Acu-Link.com,2013-12-13 05:03:00,
2013-12-13 00:18:00,21.4,3.9,29.95,West,270,5.8,-999.0,46,-99.99,,,0.00,Acu-Link.com,2013-12-13 05:18:00,
2013-12-13 00:33:00,21.4,3.9,29.95,West,270,8.9,-999.0,46,-99.99,,,0.00,Acu-Link.com,2013-12-13 05:33:00,
2013-12-13 00:49:00,21.0,3.5,29.95,West,270,11.4,-999.0,46,-99.99,,,0.00,Acu-Link.com,2013-12-13 05:49:00,
2013-12-13 01:04:00,20.7,3.7,29.95,NW,315,6.8,-999.0,47,-99.99,,,0.00,Acu-Link.com,2013-12-13 06:04:00,
2013-12-13 01:19:00,20.7,3.7,29.93,West,270,5.8,-999.0,47,-99.99,,,0.00,Acu-Link.com,2013-12-13 06:19:00,
2013-12-13 01:34:00,20.5,4.0,29.95,West,270,4.7,-999.0,48,-99.99,,,0.00,Acu-Link.com,2013-12-13 06:34:00,
2013-12-13 01:49:00,20.5,4.0,29.93,West,270,10.4,-999.0,48,-99.99,,,0.00,Acu-Link.com,2013-12-13 06:49:00,
2013-12-13 02:04:00,20.3,4.7,29.94,West,270,5.8,-999.0,50,-99.99,,,0.00,Acu-Link.com,2013-12-13 07:04:00,
2013-12-13 02:19:00,20.1,4.5,29.96,West,270,6.3,-999.0,50,-99.99,,,0.00,Acu-Link.com,2013-12-13 07:19:00,
2013-12-13 02:34:00,20.3,5.1,29.97,WNW,292,7.3,-999.0,51,-99.99,,,0.00,Acu-Link.com,2013-12-13 07:34:00,
2013-12-13 02:49:00,20.5,5.3,29.98,SSW,202,5.3,-999.0,51,-99.99,,,0.00,Acu-Link.com,2013-12-13 07:49:00,
2013-12-13 03:05:00,20.8,5.6,29.99,SW,225,4.2,-999.0,51,-99.99,,,0.00,Acu-Link.com,2013-12-13 08:05:00,
2013-12-13 03:20:00,21.0,5.3,29.98,West,270,3.7,-999.0,50,-99.99,,,0.00,Acu-Link.com,2013-12-13 08:20:00,
2013-12-13 03:35:00,21.0,5.7,29.98,WNW,292,3.7,-999.0,51,-99.99,,,0.00,Acu-Link.com,2013-12-13 08:35:00,
2013-12-13 03:50:00,21.0,6.2,29.99,SSW,202,3.7,-999.0,52,-99.99,,,0.00,Acu-Link.com,2013-12-13 08:50:00,
2013-12-13 04:44:00,21.2,6.4,29.99,West,270,3.7,-999.0,52,-99.99,,,0.00,Acu-Link.com,2013-12-13 09:44:00,
2013-12-13 04:59:00,21.6,7.6,30.01,SSW,202,6.3,-999.0,54,-99.99,,,0.00,Acu-Link.com,2013-12-13 09:59:00,
2013-12-13 05:15:00,21.6,7.6,30.00,South,180,3.7,-999.0,54,-99.99,,,0.00,Acu-Link.com,2013-12-13 10:15:00,
2013-12-13 05:30:00,21.6,8.4,30.01,SW,225,2.2,-999.0,56,-99.99,,,0.00,Acu-Link.com,2013-12-13 10:30:00,
2013-12-13 05:45:00,21.6,8.4,30.02,West,270,4.2,-999.0,56,-99.99,,,0.00,Acu-Link.com,2013-12-13 10:45:00,
2013-12-13 06:00:00,21.6,8.8,30.02,West,270,4.7,-999.0,57,-99.99,,,0.00,Acu-Link.com,2013-12-13 11:00:00,
2013-12-13 06:15:00,21.6,9.1,30.02,SW,225,2.7,-999.0,58,-99.99,,,0.00,Acu-Link.com,2013-12-13 11:15:00,
2013-12-13 06:31:00,21.2,9.1,30.03,WSW,247,2.2,-999.0,59,-99.99,,,0.00,Acu-Link.com,2013-12-13 11:31:00,
2013-12-13 06:46:00,21.0,9.0,30.03,SW,225,2.2,-999.0,59,-99.99,,,0.00,Acu-Link.com,2013-12-13 11:46:00,
2013-12-13 07:01:00,21.2,9.1,30.04,WNW,292,5.3,-999.0,59,-99.99,,,0.00,Acu-Link.com,2013-12-13 12:01:00,
2013-12-13 07:16:00,21.0,9.3,30.04,WNW,292,2.7,-999.0,60,-99.99,,,0.00,Acu-Link.com,2013-12-13 12:16:00,
2013-12-13 07:31:00,20.7,9.8,30.05,WSW,247,2.7,-999.0,62,-99.99,,,0.00,Acu-Link.com,2013-12-13 12:31:00,
2013-12-13 07:46:00,20.7,9.8,30.05,WSW,247,4.2,-999.0,62,-99.99,,,0.00,Acu-Link.com,2013-12-13 12:46:00,
2013-12-13 08:01:00,20.7,10.1,30.06,WNW,292,3.2,-999.0,63,-99.99,,,0.00,Acu-Link.com,2013-12-13 13:01:00,
2013-12-13 08:16:00,21.2,9.9,30.06,WSW,247,2.7,-999.0,61,-99.99,,,0.00,Acu-Link.com,2013-12-13 13:16:00,
2013-12-13 08:31:00,21.9,9.8,30.07,SSW,202,3.7,-999.0,59,-99.99,,,0.00,Acu-Link.com,2013-12-13 13:31:00,
2013-12-13 08:47:00,23.2,10.6,30.07,SW,225,4.2,-999.0,58,-99.99,,,0.00,Acu-Link.com,2013-12-13 13:47:00,
2013-12-13 09:02:00,23.5,10.9,30.08,WSW,247,3.7,-999.0,58,-99.99,,,0.00,Acu-Link.com,2013-12-13 14:02:00,
2013-12-13 09:17:00,23.9,10.5,30.09,WNW,292,4.2,-999.0,56,-99.99,,,0.00,Acu-Link.com,2013-12-13 14:17:00,
2013-12-13 09:32:00,24.8,11.0,30.09,NW,315,4.7,-999.0,55,-99.99,,,0.00,Acu-Link.com,2013-12-13 14:32:00,
2013-12-13 09:47:00,25.0,11.1,30.09,WSW,247,4.2,-999.0,55,-99.99,,,0.00,Acu-Link.com,2013-12-13 14:47:00,
2013-12-13 10:02:00,25.7,11.8,30.09,SE,135,3.7,-999.0,55,-99.99,,,0.00,Acu-Link.com,2013-12-13 15:02:00,
2013-12-13 10:17:00,26.6,12.2,30.10,WSW,247,3.7,-999.0,54,-99.99,,,0.00,Acu-Link.com,2013-12-13 15:17:00,
2013-12-13 10:32:00,27.0,12.2,30.10,WNW,292,4.7,-999.0,53,-99.99,,,0.00,Acu-Link.com,2013-12-13 15:32:00,
2013-12-13 10:48:00,27.3,12.9,30.10,NW,315,6.3,-999.0,54,-99.99,,,0.00,Acu-Link.com,2013-12-13 15:48:00,
2013-12-13 11:03:00,27.9,13.4,30.10,West,270,7.3,-999.0,54,-99.99,,,0.00,Acu-Link.com,2013-12-13 16:03:00,
2013-12-13 11:18:00,28.6,14.1,30.09,West,270,3.7,-999.0,54,-99.99,,,0.00,Acu-Link.com,2013-12-13 16:18:00,
2013-12-13 11:33:00,28.8,13.9,30.08,South,180,4.2,-999.0,53,-99.99,,,0.00,Acu-Link.com,2013-12-13 16:33:00,
2013-12-13 11:48:00,28.9,13.9,30.08,SSW,202,6.3,-999.0,53,-99.99,,,0.00,Acu-Link.com,2013-12-13 16:48:00,
2013-12-13 12:03:00,30.0,14.5,30.08,West,270,5.3,-999.0,52,-99.99,,,0.00,Acu-Link.com,2013-12-13 17:03:00,
2013-12-13 12:18:00,30.4,14.5,30.07,WSW,247,4.2,-999.0,51,-99.99,,,0.00,Acu-Link.com,2013-12-13 17:18:00,
2013-12-13 12:34:00,30.9,14.9,30.07,SW,225,4.2,-999.0,51,-99.99,,,0.00,Acu-Link.com,2013-12-13 17:34:00,
2013-12-13 12:49:00,31.8,15.3,30.06,West,270,6.8,-999.0,50,-99.99,,,0.00,Acu-Link.com,2013-12-13 17:49:00,
2013-12-13 13:04:00,31.5,15.5,30.06,West,270,4.2,-999.0,51,-99.99,,,0.00,Acu-Link.com,2013-12-13 18:04:00,
2013-12-13 13:19:00,32.2,15.2,30.06,WSW,247,3.2,-999.0,49,-99.99,,,0.00,Acu-Link.com,2013-12-13 18:19:00,
2013-12-13 13:34:00,34.0,15.9,30.06,SW,225,5.3,-999.0,47,-99.99,,,0.00,Acu-Link.com,2013-12-13 18:34:00,
2013-12-13 13:49:00,33.8,16.2,30.05,SSW,202,2.2,-999.0,48,-99.99,,,0.00,Acu-Link.com,2013-12-13 18:49:00,
2013-12-13 14:04:00,34.9,16.7,30.05,West,270,3.7,-999.0,47,-99.99,,,0.00,Acu-Link.com,2013-12-13 19:04:00,
2013-12-13 14:19:00,34.2,16.1,30.06,West,270,6.8,-999.0,47,-99.99,,,0.00,Acu-Link.com,2013-12-13 19:19:00,
2013-12-13 14:34:00,34.7,16.1,30.06,SW,225,5.3,-999.0,46,-99.99,,,0.00,Acu-Link.com,2013-12-13 19:34:00,
2013-12-13 14:50:00,33.8,15.7,30.06,SSW,202,5.3,-999.0,47,-99.99,,,0.00,Acu-Link.com,2013-12-13 19:50:00,
2013-12-13 15:05:00,33.3,15.8,30.07,SW,225,3.2,-999.0,48,-99.99,,,0.00,Acu-Link.com,2013-12-13 20:05:00,
2013-12-13 15:20:00,33.1,15.1,30.06,SSW,202,3.2,-999.0,47,-99.99,,,0.00,Acu-Link.com,2013-12-13 20:20:00,
2013-12-13 15:35:00,32.9,15.4,30.07,SW,225,5.8,-999.0,48,-99.99,,,0.00,Acu-Link.com,2013-12-13 20:35:00,
2013-12-13 15:50:00,32.4,15.4,30.08,West,270,4.7,-999.0,49,-99.99,,,0.00,Acu-Link.com,2013-12-13 20:50:00,
2013-12-13 16:05:00,32.4,15.4,30.07,West,270,3.7,-999.0,49,-99.99,,,0.00,Acu-Link.com,2013-12-13 21:05:00,
2013-12-13 16:20:00,32.2,15.7,30.08,SW,225,3.7,-999.0,50,-99.99,,,0.00,Acu-Link.com,2013-12-13 21:20:00,
2013-12-13 16:35:00,32.0,15.0,30.09,West,270,7.3,-999.0,49,-99.99,,,0.00,Acu-Link.com,2013-12-13 21:35:00,
2013-12-13 16:51:00,31.8,14.8,30.09,West,270,3.7,-999.0,49,-99.99,,,0.00,Acu-Link.com,2013-12-13 21:51:00,
2013-12-13 17:06:00,31.8,14.8,30.09,West,270,3.7,-999.0,49,-99.99,,,0.00,Acu-Link.com,2013-12-13 22:06:00,
2013-12-13 17:21:00,31.8,15.3,30.10,SW,225,4.7,-999.0,50,-99.99,,,0.00,Acu-Link.com,2013-12-13 22:21:00,
2013-12-13 17:36:00,31.8,14.8,30.11,West,270,6.3,-999.0,49,-99.99,,,0.00,Acu-Link.com,2013-12-13 22:36:00,
2013-12-13 17:51:00,31.8,15.3,30.12,West,270,4.2,-999.0,50,-99.99,,,0.00,Acu-Link.com,2013-12-13 22:51:00,
2013-12-13 18:06:00,31.8,15.8,30.12,West,270,7.8,-999.0,51,-99.99,,,0.00,Acu-Link.com,2013-12-13 23:06:00,
2013-12-13 18:21:00,31.8,15.8,30.13,NW,315,5.8,-999.0,51,-99.99,,,0.00,Acu-Link.com,2013-12-13 23:21:00,
2013-12-13 18:37:00,31.8,16.2,30.14,WSW,247,3.7,-999.0,52,-99.99,,,0.00,Acu-Link.com,2013-12-13 23:37:00,
2013-12-13 18:52:00,31.6,16.0,30.14,SW,225,2.7,-999.0,52,-99.99,,,0.00,Acu-Link.com,2013-12-13 23:52:00,
2013-12-13 19:07:00,31.3,16.6,30.14,West,270,4.7,-999.0,54,-99.99,,,0.00,Acu-Link.com,2013-12-14 00:07:00,
2013-12-13 19:22:00,30.9,16.7,30.15,WSW,247,3.2,-999.0,55,-99.99,,,0.00,Acu-Link.com,2013-12-14 00:22:00,
2013-12-13 19:37:00,30.9,16.7,30.14,SW,225,1.7,-999.0,55,-99.99,,,0.00,Acu-Link.com,2013-12-14 00:37:00,
2013-12-13 19:52:00,30.4,17.0,30.14,West,270,1.7,-999.0,57,-99.99,,,0.00,Acu-Link.com,2013-12-14 00:52:00,
2013-12-13 20:07:00,28.9,17.5,30.15,WNW,292,1.7,-999.0,62,-99.99,,,0.00,Acu-Link.com,2013-12-14 01:07:00,
2013-12-13 20:22:00,28.0,17.1,30.15,West,270,3.2,-999.0,63,-99.99,,,0.00,Acu-Link.com,2013-12-14 01:22:00,
2013-12-13 20:37:00,27.9,17.7,30.16,WSW,247,1.7,-999.0,65,-99.99,,,0.00,Acu-Link.com,2013-12-14 01:37:00,
2013-12-13 20:53:00,27.5,18.0,30.16,West,270,0.0,-999.0,67,-99.99,,,0.00,Acu-Link.com,2013-12-14 01:53:00,
2013-12-13 21:08:00,26.6,18.5,30.17,West,270,2.7,-999.0,71,-99.99,,,0.00,Acu-Link.com,2013-12-14 02:08:00,
2013-12-13 21:23:00,26.6,18.2,30.17,WSW,247,0.0,-999.0,70,-99.99,,,0.00,Acu-Link.com,2013-12-14 02:23:00,
2013-12-13 21:38:00,26.6,19.1,30.18,NW,315,1.7,-999.0,73,-99.99,,,0.00,Acu-Link.com,2013-12-14 02:38:00,
2013-12-13 21:53:00,27.0,19.8,30.18,West,270,1.7,-999.0,74,-99.99,,,0.00,Acu-Link.com,2013-12-14 02:53:00,
2013-12-13 22:08:00,27.0,19.5,30.19,West,270,2.2,-999.0,73,-99.99,,,0.00,Acu-Link.com,2013-12-14 03:08:00,
2013-12-13 22:23:00,27.0,19.5,30.19,West,270,0.0,-999.0,73,-99.99,,,0.00,Acu-Link.com,2013-12-14 03:23:00,
2013-12-13 22:38:00,26.8,20.0,30.19,West,270,0.0,-999.0,75,-99.99,,,0.00,Acu-Link.com,2013-12-14 03:38:00,
2013-12-13 22:53:00,26.4,19.6,30.18,SW,225,0.0,-999.0,75,-99.99,,,0.00,Acu-Link.com,2013-12-14 03:53:00,
2013-12-13 23:08:00,26.4,19.9,30.14,NE,45,0.0,-999.0,76,-99.99,,,0.00,Acu-Link.com,2013-12-14 04:08:00,
2013-12-13 23:24:00,26.4,20.2,30.13,SW,225,0.0,-999.0,77,-99.99,,,0.00,Acu-Link.com,2013-12-14 04:24:00,
2013-12-13 23:39:00,26.4,20.2,30.12,NW,315,1.1,-999.0,77,-99.99,,,0.00,Acu-Link.com,2013-12-14 04:39:00,
2013-12-13 23:54:00,26.4,19.9,30.10,ESE,112,0.0,-999.0,76,-99.99,,,0.00,Acu-Link.com,2013-12-14 04:54:00,